SCP
0 0 0 0 0 0 0 0 0 0 0 0 0 0 0 0 0 0 0 0 0 0 0 0 0 0 0 0 0 0 0 0 0 0 0 0 0 0 0 0 0 0 0 0
0 0 0 0 0 0 0 0 0 0 0 0 0 0 0 0 0 0 0 0 0 0 0 0 0 0 0 0 0 0 0 0 0 0 0 0 0 0 0 0 0 0 0 0
0 0 0 0 0 0 0 0 0 0 0 0 0 0 0 0 0 0 0 0 0 0 0 0 0 0 0 0 0 0 0 0 0 0 0 0 0 0 0 0 0 0 0 0
0 0 0 0 0 0 0 0 0 0 0 0 0 0 0 0 0 0 0 0 0 0 0 0 0 0 0 0 0 0 0 0 0 0 0 0 0 0 0 0 0 0 0 0
0 0 0 0 0 0 0 0 0 0 0 0 0 0 0 0 0 0 0 0 0 0 0 0 0 0 0 0 0 0 0 0 0 0 0 0 0 0 0 0 0 0 0 0
0 0 0 0 0 0 0 0 0 0 0 0 0 0 0 0 0 0 0 0 0 0 0 0 0 0 0 0 0 0 0 0 0 0 0 0 0 0 0 0 0 0 0 0
0 0 0 0 0 0 0 0 0 0 0 0 0 0 0 0 0 0 0 0 0 0 0 0 0 0 0 0 0 0 0 0 0 0 0 0 0 0 0 0 0 0 0 0
0 0 0 0 0 0 0 0 0 0 0 0 0 0 0 0 0 0 0 0 0 0 0 0 0 0 0 0 0 0 0 0 0 0 0 0 0 0 0 0 0 0 0 0
0 0 0 0 0 0 0 0 0 0 0 0 0 0 0 0 0 0 0 0 0 0 0 0 0 0 0 0 0 0 0 0 0 0 0 0 0 0 0 0 0 0 0 0
0 0 0 0 0 0 0 0 0 0 0 0 0 0 0 0 0 0 0 0 0 0 0 0 0 0 0 0 0 0 0 0 0 0 0 0 0 0 0 0 0 0 0 0
0 0 0 0 0 0 0 0 0 0 0 0 0 0 0 0 0 0 0 0 0 0 0 0 0 0 0 0 0 0 0 0 0 0 0 0 0 0 0 0 0 0 0 0
0 0 0 0 0 0 0 0 0 0 0 0 0 0 0 0 0 0 0 0 0 0 0 0 0 0 0 0 0 0 0 0 0 0 0 0 0 0 0 0 0 0 0 0
0 0 0 0 0 0 0 0 0 0 0 0 0 0 0 0 0 0 0 0 0 0 0 0 0 0 0 0 0 0 0 0 0 0 0 0 0 0 0 0 0 0 0 0
0 0 0 0 0 0 0 0 0 0 0 0 0 0 0 0 0 0 0 0 0 0 0 0 0 0 0 0 0 0 0 0 0 0 0 0 0 0 0 0 0 0 0 0
0 0 0 0 0 0 0 0 0 0 0 0 0 0 0 0 0 0 0 0 0 0 0 0 0 0 0 0 0 0 0 0 0 0 0 0 0 0 0 0 0 0 0 0
0 0 0 0 0 0 0 0 0 0 0 0 0 0 0 0 0 0 0 0 0 0 0 0 0 0 0 0 0 0 0 0 0 0 0 0 0 0 0 0 0 0 0 0
0 0 0 0 0 0 0 0 0 0 0 0 0 0 0 0 0 0 0 0 0 0 0 0 0 0 0 0 0 0 0 0 0 0 0 0 0 0 0 0 0 0 0 0
0 0 0 0 0 0 0 0 0 0 0 0 0 0 0 0 0 0 0 0 0 0 0 0 0 0 0 0 0 0 0 0 0 0 0 0 0 0 0 0 0 0 0 0
0 0 0 0 0 0 0 0 0 0 0 0 0 0 0 0 0 0 0 0 0 0 0 0 0 0 0 0 0 0 0 0 0 0 0 0 0 0 0 0 0 0 0 0
0 0 0 0 0 0 0 0 0 0 0 0 0 0 0 0 0 0 0 0 0 0 0 0 0 0 0 0 0 0 0 0 0 0 0 0 0 0 0 0 0 0 0 0
0 0 0 0 0 0 0 0 0 0 0 0 0 0 0 0 0 0 0 0 0 0 0 0 0 0 0 0 0 0 0 0 0 0 0 0 0 0 0 0 0 0 0 0
0 0 0 0 0 0 0 0 0 0 0 0 0 0 0 0 0 0 0 0 0 0 0 0 0 0 0 0 0 0 0 0 0 0 0 0 0 0 0 0 0 0 0 0
0 0 0 0 0 0 0 0 0 0 0 0 0 0 0 0 0 0 0 0 0 0 0 0 0 0 0 0 0 0 0 0 0 0 0 0 0 0 0 0 0 0 0 0
0 0 0 0 0 0 0 0 0 0 0 0 0 0 0 0 0 0 0 0 0 0 0 0 0 0 0 0 0 0 0 0 0 0 0 0 0 0 0 0 0 0 0 0
0 0 0 0 0 0 0 0 0 0 0 0 0 0 0 0 0 0 0 0 0 0 0 0 0 0 0 0 0 0 0 0 0 0 0 0 0 0 0 0 0 0 0 0
0 0 0 0 0 0 0 -0 0 0 0 0 0 0 0 0 0 0 0 0 0 0 0 0 0 0 0 0 0 0 0 0 0 0 0 0 0 0 0 0 0 0 0 0
Wind_Speed_500mb
7 14 24 35 31 11 2 9 21 5 3 7 21 24 21 29 25 26 21 17 15 10 3 3 4 6 11 15 18 22 28 30 28 31 30 30 31 27 18 11 8 2 5 5
9 26 26 5 15 15 10 18 29 12 6 8 19 28 33 24 27 31 27 24 21 17 12 11 14 16 19 22 26 28 31 33 27 26 26 27 23 22 20 18 13 12 11 8
23 4 13 16 13 19 22 28 23 17 1 10 11 31 37 14 12 12 20 27 27 27 26 25 26 27 29 31 33 34 33 30 28 26 24 22 25 29 28 28 26 24 19 17
16 7 12 16 16 24 28 24 20 16 7 17 5 13 13 14 16 19 27 33 33 34 34 33 32 34 35 38 40 41 41 42 39 36 32 32 28 29 29 25 23 19 16 14
11 17 20 22 19 21 11 10 18 12 18 11 18 12 13 7 20 24 32 39 38 35 36 38 38 39 41 43 44 44 44 42 40 37 32 26 22 20 19 19 17 15 14 14
9 1 9 8 6 14 24 13 10 6 3 15 31 26 14 14 14 14 31 36 39 42 46 44 43 43 44 48 48 47 45 41 36 31 26 18 16 16 15 14 12 11 10 12
7 19 8 9 11 5 11 20 7 8 10 13 3 18 18 14 4 5 32 41 41 41 46 48 47 47 47 49 47 44 39 33 30 27 23 18 15 16 16 14 9 9 10 11
18 14 30 25 27 18 33 23 10 13 11 3 5 14 9 4 8 10 15 41 43 45 49 51 50 50 50 49 47 42 35 27 26 22 19 18 16 16 15 10 4 1 4 7
17 12 5 7 6 20 15 21 3 7 3 5 12 10 12 8 11 12 22 40 49 52 58 56 54 52 52 50 45 38 32 28 23 19 18 17 16 17 14 10 6 6 7 10
12 10 4 5 7 1 10 21 9 7 10 13 11 11 15 16 26 19 25 41 47 51 59 61 61 58 55 50 45 39 34 28 24 22 21 20 21 20 16 12 12 9 9 11
12 9 7 10 23 35 12 13 7 5 8 8 9 9 9 24 26 29 33 41 50 57 64 65 62 60 56 53 50 43 39 35 32 28 28 27 25 22 20 18 14 13 12 12
20 5 12 23 2 5 22 23 25 14 13 9 4 12 4 4 13 23 26 35 43 54 61 63 64 63 61 57 54 51 45 41 36 33 33 32 30 28 24 22 20 16 14 12
24 10 11 7 7 5 17 18 30 23 4 21 14 7 2 2 9 21 25 34 45 52 58 63 65 68 67 65 61 55 48 43 40 40 39 38 37 32 31 29 25 19 15 15
48 18 31 37 16 21 24 29 32 36 20 25 39 17 17 19 21 26 32 37 44 58 65 64 65 69 68 67 62 57 49 46 47 47 46 44 40 39 37 35 30 23 20 21
26 31 36 44 24 19 19 39 43 50 54 31 35 40 30 31 30 40 45 37 47 61 65 69 69 68 67 67 61 56 52 54 54 53 51 48 46 45 44 43 37 31 29 29
10 28 31 31 27 25 19 35 50 53 48 46 30 36 15 42 33 27 34 44 55 64 64 65 64 66 60 55 54 54 58 59 59 57 55 51 52 51 49 48 44 41 39 37
25 22 15 31 18 10 19 46 41 35 35 39 38 34 13 16 28 37 40 55 61 53 57 56 55 50 44 45 45 46 47 53 59 59 56 54 53 53 55 54 53 52 49 47
32 38 16 14 11 21 14 1 37 42 33 32 7 8 22 19 30 29 36 47 46 46 44 42 43 39 37 35 33 34 39 44 48 54 56 54 56 59 61 62 61 61 57 53
2 26 10 11 20 7 3 7 17 26 29 19 36 12 12 13 10 14 34 38 36 36 37 36 35 33 33 34 34 35 37 36 40 46 49 53 57 61 65 68 67 65 61 56
5 10 17 8 13 21 4 9 11 10 11 18 31 14 21 27 13 16 35 31 34 35 34 33 34 36 35 35 35 36 33 31 36 38 41 46 52 57 62 65 66 64 59 55
9 4 25 12 11 9 7 12 19 14 5 14 39 32 43 15 14 11 29 40 37 32 31 33 36 33 30 36 37 33 31 39 38 34 35 38 45 50 54 58 60 58 55 55
17 18 9 7 9 18 17 12 17 7 15 31 34 36 44 36 28 38 41 39 35 29 29 35 39 33 33 42 41 37 35 32 35 37 36 37 42 47 51 53 54 54 55 57
7 6 8 12 4 4 37 6 15 29 34 34 41 45 42 44 48 45 41 34 26 20 23 35 41 34 37 50 50 45 39 37 40 46 48 46 45 51 51 52 53 55 58 61
7 7 5 6 5 3 35 6 24 23 28 39 39 44 43 46 51 48 38 30 26 24 29 40 45 41 45 59 64 57 45 45 50 53 56 52 51 54 56 55 55 59 61 62
3 15 12 3 3 6 22 37 32 35 30 37 33 29 36 44 48 45 39 34 31 29 34 44 53 50 50 52 63 70 65 61 59 58 58 54 54 56 58 58 59 61 62 63
15 12 9 6 28 15 20 48 48 40 45 41 41 38 38 43 48 44 44 42 37 38 41 49 55 59 58 58 60 63 66 64 60 58 58 57 55 56 58 59 61 61 63 65
Wind_Direction_500mb
151 206 215 216 218 259 210 235 259 213 123 238 246 264 255 206 221 220 213 196 177 189 180 140 119 118 124 134 131 126 122 124 130 135 139 144 146 140 146 156 143 203 214 239
161 230 234 145 195 218 228 251 259 273 218 235 264 261 264 226 230 232 224 193 177 170 162 143 135 134 138 140 142 131 132 132 142 151 151 157 151 142 131 120 116 107 98 94
211 161 171 172 171 202 227 233 243 261 201 218 270 265 252 224 193 189 184 182 177 174 165 158 153 148 145 144 143 145 141 134 135 138 140 136 131 126 122 118 111 101 91 77
235 164 155 184 210 205 241 223 232 232 244 262 232 281 238 211 203 196 190 187 180 174 165 158 152 143 140 141 135 133 133 135 133 129 128 129 125 122 116 112 103 95 81 67
200 178 189 214 224 186 264 145 203 213 234 265 218 256 248 177 232 207 193 184 177 172 168 161 156 149 144 138 137 137 136 133 130 127 125 131 132 129 121 112 107 93 75 57
273 71 194 205 96 193 136 101 82 84 201 252 233 221 199 214 222 177 186 187 179 174 172 169 164 159 154 147 145 143 141 137 134 136 139 144 132 129 129 122 115 94 73 52
197 220 175 160 116 96 182 165 183 217 209 251 65 214 257 242 176 115 180 182 184 182 177 176 174 169 163 158 156 152 150 148 148 152 150 153 152 154 148 143 113 64 35 14
198 235 191 187 214 181 190 196 206 213 204 222 107 230 242 320 126 137 151 181 182 184 186 185 182 179 175 170 166 165 163 166 165 163 163 167 162 166 168 158 132 33 314 320
195 247 195 196 148 167 180 212 169 110 81 263 208 230 238 183 195 171 164 178 187 189 191 190 189 187 183 182 180 180 180 184 180 183 184 179 183 193 192 187 201 249 276 296
199 235 218 143 140 140 207 145 172 214 218 231 207 239 224 205 207 183 185 192 193 194 195 195 194 192 192 192 193 194 195 199 205 204 202 200 202 204 208 227 240 255 278 294
155 237 140 147 208 187 173 190 205 216 222 239 260 228 214 205 186 190 197 197 196 196 199 199 198 198 199 199 202 205 208 214 216 216 214 209 213 220 226 232 241 250 261 277
196 161 195 207 120 303 234 215 184 200 191 237 307 244 175 131 169 188 188 197 201 203 200 201 203 202 203 207 209 211 216 220 222 222 219 218 220 224 231 232 232 240 257 287
171 198 228 221 214 182 218 204 216 235 57 210 211 225 134 202 239 202 193 200 204 203 202 203 205 208 209 212 214 218 221 227 229 227 225 226 227 228 231 234 239 246 268 297
167 175 208 225 217 161 205 205 202 202 220 218 227 221 196 205 214 204 204 208 205 204 204 204 207 211 215 218 220 223 229 232 233 231 230 230 232 234 233 238 241 249 267 287
188 226 217 235 243 203 208 196 195 208 221 214 233 225 196 195 202 206 211 199 197 203 205 208 211 215 219 223 227 232 238 238 237 235 234 234 235 235 237 241 243 251 265 277
220 228 217 241 229 216 228 211 202 211 219 233 242 246 187 204 202 198 200 198 203 207 207 210 214 220 225 232 235 240 242 241 239 239 239 237 237 241 245 247 250 256 263 272
185 203 183 232 197 162 250 214 198 206 214 213 219 231 136 178 197 205 198 204 209 209 209 213 222 226 224 234 237 239 245 246 243 241 240 239 242 246 250 251 254 260 265 270
194 205 203 227 132 218 260 145 206 209 212 217 249 153 170 189 207 215 212 202 203 218 221 223 218 220 215 219 232 242 249 250 239 237 240 241 245 250 253 256 259 261 265 271
136 185 182 183 210 325 343 203 165 179 228 199 217 169 145 153 163 216 209 213 216 216 216 214 204 209 220 230 235 239 241 238 229 234 240 246 251 256 258 260 260 261 265 271
130 187 205 151 209 220 213 175 165 144 243 196 191 153 152 145 197 222 209 198 197 187 189 199 212 218 222 227 226 226 228 228 235 240 252 257 258 259 259 259 259 261 265 271
147 168 211 183 221 271 204 162 159 161 230 155 183 175 157 188 209 186 171 177 182 192 203 211 216 222 230 223 215 212 231 250 252 247 250 256 259 259 258 257 258 260 265 271
171 168 184 157 210 248 146 108 176 155 126 158 179 186 192 199 183 173 173 180 191 202 212 217 220 223 229 217 215 232 251 258 247 247 254 266 270 266 261 258 259 262 267 273
206 192 176 206 197 48 172 82 173 147 165 182 183 189 192 182 183 185 186 190 202 219 230 227 226 229 236 224 230 244 259 253 254 255 259 264 269 258 258 259 261 264 268 273
239 167 157 166 163 171 185 126 174 182 202 190 181 184 191 196 197 194 193 198 215 226 233 232 225 231 236 235 237 246 254 257 255 259 257 259 266 260 257 258 262 266 270 275
140 143 133 76 356 13 212 211 203 206 199 189 191 201 212 215 206 205 210 216 228 240 235 230 226 234 240 242 246 250 256 262 255 255 253 257 261 260 258 260 263 267 270 273
187 152 166 187 181 170 202 217 220 214 210 204 209 217 223 221 219 223 229 235 244 242 234 230 232 238 246 247 249 252 255 255 251 251 250 255 258 258 258 260 266 269 273 277
Wind_Speed_850mb
7 14 24 35 31 11 2 9 21 5 3 7 21 24 21 29 25 26 21 17 15 10 3 3 4 6 11 15 18 22 28 30 28 31 30 30 31 27 18 11 8 2 5 5
9 26 26 5 15 15 10 18 29 12 6 8 19 28 33 24 27 31 27 24 21 17 12 11 14 16 19 22 26 28 31 33 27 26 26 27 23 22 20 18 13 12 11 8
23 4 13 16 13 19 22 28 23 17 1 10 11 31 37 14 12 12 20 27 27 27 26 25 26 27 29 31 33 34 33 30 28 26 24 22 25 29 28 28 26 24 19 17
16 7 12 16 16 24 28 24 20 16 7 17 5 13 13 14 16 19 27 33 33 34 34 33 32 34 35 38 40 41 41 42 39 36 32 32 28 29 29 25 23 19 16 14
11 17 20 22 19 21 11 10 18 12 18 11 18 12 13 7 20 24 32 39 38 35 36 38 38 39 41 43 44 44 44 42 40 37 32 26 22 20 19 19 17 15 14 14
9 1 9 8 6 14 24 13 10 6 3 15 31 26 14 14 14 14 31 36 39 42 46 44 43 43 44 48 48 47 45 41 36 31 26 18 16 16 15 14 12 11 10 12
7 19 8 9 11 5 11 20 7 8 10 13 3 18 18 14 4 5 32 41 41 41 46 48 47 47 47 49 47 44 39 33 30 27 23 18 15 16 16 14 9 9 10 11
18 14 30 25 27 18 33 23 10 13 11 3 5 14 9 4 8 10 15 41 43 45 49 51 50 50 50 49 47 42 35 27 26 22 19 18 16 16 15 10 4 1 4 7
17 12 5 7 6 20 15 21 3 7 3 5 12 10 12 8 11 12 22 40 49 52 58 56 54 52 52 50 45 38 32 28 23 19 18 17 16 17 14 10 6 6 7 10
12 10 4 5 7 1 10 21 9 7 10 13 11 11 15 16 26 19 25 41 47 51 59 61 61 58 55 50 45 39 34 28 24 22 21 20 21 20 16 12 12 9 9 11
12 9 7 10 23 35 12 13 7 5 8 8 9 9 9 24 26 29 33 41 50 57 64 65 62 60 56 53 50 43 39 35 32 28 28 27 25 22 20 18 14 13 12 12
20 5 12 23 2 5 22 23 25 14 13 9 4 12 4 4 13 23 26 35 43 54 61 63 64 63 61 57 54 51 45 41 36 33 33 32 30 28 24 22 20 16 14 12
24 10 11 7 7 5 17 18 30 23 4 21 14 7 2 2 9 21 25 34 45 52 58 63 65 68 67 65 61 55 48 43 40 40 39 38 37 32 31 29 25 19 15 15
48 18 31 37 16 21 24 29 32 36 20 25 39 17 17 19 21 26 32 37 44 58 65 64 65 69 68 67 62 57 49 46 47 47 46 44 40 39 37 35 30 23 20 21
26 31 36 44 24 19 19 39 43 50 54 31 35 40 30 31 30 40 45 37 47 61 65 69 69 68 67 67 61 56 52 54 54 53 51 48 46 45 44 43 37 31 29 29
10 28 31 31 27 25 19 35 50 53 48 46 30 36 15 42 33 27 34 44 55 64 64 65 64 66 60 55 54 54 58 59 59 57 55 51 52 51 49 48 44 41 39 37
25 22 15 31 18 10 19 46 41 35 35 39 38 34 13 16 28 37 40 55 61 53 57 56 55 50 44 45 45 46 47 53 59 59 56 54 53 53 55 54 53 52 49 47
32 38 16 14 11 21 14 1 37 42 33 32 7 8 22 19 30 29 36 47 46 46 44 42 43 39 37 35 33 34 39 44 48 54 56 54 56 59 61 62 61 61 57 53
2 26 10 11 20 7 3 7 17 26 29 19 36 12 12 13 10 14 34 38 36 36 37 36 35 33 33 34 34 35 37 36 40 46 49 53 57 61 65 68 67 65 61 56
5 10 17 8 13 21 4 9 11 10 11 18 31 14 21 27 13 16 35 31 34 35 34 33 34 36 35 35 35 36 33 31 36 38 41 46 52 57 62 65 66 64 59 55
9 4 25 12 11 9 7 12 19 14 5 14 39 32 43 15 14 11 29 40 37 32 31 33 36 33 30 36 37 33 31 39 38 34 35 38 45 50 54 58 60 58 55 55
17 18 9 7 9 18 17 12 17 7 15 31 34 36 44 36 28 38 41 39 35 29 29 35 39 33 33 42 41 37 35 32 35 37 36 37 42 47 51 53 54 54 55 57
7 6 8 12 4 4 37 6 15 29 34 34 41 45 42 44 48 45 41 34 26 20 23 35 41 34 37 50 50 45 39 37 40 46 48 46 45 51 51 52 53 55 58 61
7 7 5 6 5 3 35 6 24 23 28 39 39 44 43 46 51 48 38 30 26 24 29 40 45 41 45 59 64 57 45 45 50 53 56 52 51 54 56 55 55 59 61 62
3 15 12 3 3 6 22 37 32 35 30 37 33 29 36 44 48 45 39 34 31 29 34 44 53 50 50 52 63 70 65 61 59 58 58 54 54 56 58 58 59 61 62 63
15 12 9 6 28 15 20 48 48 40 45 41 41 38 38 43 48 44 44 42 37 38 41 49 55 59 58 58 60 63 66 64 60 58 58 57 55 56 58 59 61 61 63 65
Wind_Direction_850mb
151 206 215 216 218 259 210 235 259 213 123 238 246 264 255 206 221 220 213 196 177 189 180 140 119 118 124 134 131 126 122 124 130 135 139 144 146 140 146 156 143 203 214 239
161 230 234 145 195 218 228 251 259 273 218 235 264 261 264 226 230 232 224 193 177 170 162 143 135 134 138 140 142 131 132 132 142 151 151 157 151 142 131 120 116 107 98 94
211 161 171 172 171 202 227 233 243 261 201 218 270 265 252 224 193 189 184 182 177 174 165 158 153 148 145 144 143 145 141 134 135 138 140 136 131 126 122 118 111 101 91 77
235 164 155 184 210 205 241 223 232 232 244 262 232 281 238 211 203 196 190 187 180 174 165 158 152 143 140 141 135 133 133 135 133 129 128 129 125 122 116 112 103 95 81 67
200 178 189 214 224 186 264 145 203 213 234 265 218 256 248 177 232 207 193 184 177 172 168 161 156 149 144 138 137 137 136 133 130 127 125 131 132 129 121 112 107 93 75 57
273 71 194 205 96 193 136 101 82 84 201 252 233 221 199 214 222 177 186 187 179 174 172 169 164 159 154 147 145 143 141 137 134 136 139 144 132 129 129 122 115 94 73 52
197 220 175 160 116 96 182 165 183 217 209 251 65 214 257 242 176 115 180 182 184 182 177 176 174 169 163 158 156 152 150 148 148 152 150 153 152 154 148 143 113 64 35 14
198 235 191 187 214 181 190 196 206 213 204 222 107 230 242 320 126 137 151 181 182 184 186 185 182 179 175 170 166 165 163 166 165 163 163 167 162 166 168 158 132 33 314 320
195 247 195 196 148 167 180 212 169 110 81 263 208 230 238 183 195 171 164 178 187 189 191 190 189 187 183 182 180 180 180 184 180 183 184 179 183 193 192 187 201 249 276 296
199 235 218 143 140 140 207 145 172 214 218 231 207 239 224 205 207 183 185 192 193 194 195 195 194 192 192 192 193 194 195 199 205 204 202 200 202 204 208 227 240 255 278 294
155 237 140 147 208 187 173 190 205 216 222 239 260 228 214 205 186 190 197 197 196 196 199 199 198 198 199 199 202 205 208 214 216 216 214 209 213 220 226 232 241 250 261 277
196 161 195 207 120 303 234 215 184 200 191 237 307 244 175 131 169 188 188 197 201 203 200 201 203 202 203 207 209 211 216 220 222 222 219 218 220 224 231 232 232 240 257 287
171 198 228 221 214 182 218 204 216 235 57 210 211 225 134 202 239 202 193 200 204 203 202 203 205 208 209 212 214 218 221 227 229 227 225 226 227 228 231 234 239 246 268 297
167 175 208 225 217 161 205 205 202 202 220 218 227 221 196 205 214 204 204 208 205 204 204 204 207 211 215 218 220 223 229 232 233 231 230 230 232 234 233 238 241 249 267 287
188 226 217 235 243 203 208 196 195 208 221 214 233 225 196 195 202 206 211 199 197 203 205 208 211 215 219 223 227 232 238 238 237 235 234 234 235 235 237 241 243 251 265 277
220 228 217 241 229 216 228 211 202 211 219 233 242 246 187 204 202 198 200 198 203 207 207 210 214 220 225 232 235 240 242 241 239 239 239 237 237 241 245 247 250 256 263 272
185 203 183 232 197 162 250 214 198 206 214 213 219 231 136 178 197 205 198 204 209 209 209 213 222 226 224 234 237 239 245 246 243 241 240 239 242 246 250 251 254 260 265 270
194 205 203 227 132 218 260 145 206 209 212 217 249 153 170 189 207 215 212 202 203 218 221 223 218 220 215 219 232 242 249 250 239 237 240 241 245 250 253 256 259 261 265 271
136 185 182 183 210 325 343 203 165 179 228 199 217 169 145 153 163 216 209 213 216 216 216 214 204 209 220 230 235 239 241 238 229 234 240 246 251 256 258 260 260 261 265 271
130 187 205 151 209 220 213 175 165 144 243 196 191 153 152 145 197 222 209 198 197 187 189 199 212 218 222 227 226 226 228 228 235 240 252 257 258 259 259 259 259 261 265 271
147 168 211 183 221 271 204 162 159 161 230 155 183 175 157 188 209 186 171 177 182 192 203 211 216 222 230 223 215 212 231 250 252 247 250 256 259 259 258 257 258 260 265 271
171 168 184 157 210 248 146 108 176 155 126 158 179 186 192 199 183 173 173 180 191 202 212 217 220 223 229 217 215 232 251 258 247 247 254 266 270 266 261 258 259 262 267 273
206 192 176 206 197 48 172 82 173 147 165 182 183 189 192 182 183 185 186 190 202 219 230 227 226 229 236 224 230 244 259 253 254 255 259 264 269 258 258 259 261 264 268 273
239 167 157 166 163 171 185 126 174 182 202 190 181 184 191 196 197 194 193 198 215 226 233 232 225 231 236 235 237 246 254 257 255 259 257 259 266 260 257 258 262 266 270 275
140 143 133 76 356 13 212 211 203 206 199 189 191 201 212 215 206 205 210 216 228 240 235 230 226 234 240 242 246 250 256 262 255 255 253 257 261 260 258 260 263 267 270 273
187 152 166 187 181 170 202 217 220 214 210 204 209 217 223 221 219 223 229 235 244 242 234 230 232 238 246 247 249 252 255 255 251 251 250 255 258 258 258 260 266 269 273 277